Orbital Elements at Epoch 2459200.5 (2020-Dec-17.0) TDB
Reference: JPL 20 (heliocentric ecliptic J2000)
Element | Value | Uncertainty (1-sigma) | Units |
e | .04589569982386351 | 7.8211e-08 | |
a | 2.996821358764632 | 2.4975e-08 | au |
q | 2.859280145257027 | 2.4827e-07 | au |
i | 9.470240821848131 | 5.4773e-06 | deg |
node | 47.13017809367339 | 3.9498e-05 | deg |
peri | 279.8330599389568 | 9.6829e-05 | deg |
M | 30.08464431303533 | 8.2217e-05 | deg |
tp | 2459042.144887067829 (2020-Jul-11.64488707) | 0.00043385 | TDB |
period | 1894.914896197755 5.19 | 2.3688e-05 6.485e-08 | d yr |
n | .1899821468089985 | 2.375e-09 | deg/d |
Q | 3.134362572272237 | 2.6122e-08 | au |
|
| | Orbit Determination Parameters
Additional Information
|